Commit Graph
100 Commits
Author SHA1 Message Date
Doug Kearns fe6cb037b3 prefer let over var in Search 2008-12-10 13:53:01 +11:00
Doug Kearns f2a2e9dc55 prefer let over var in Events and AutoCommands 2008-12-10 13:52:59 +11:00
Doug Kearns 2376da165d prefer let over var in completion.url 2008-12-10 13:52:56 +11:00
Doug Kearns eccd44d772 prefer let over var in vimperator#config 2008-12-10 13:52:54 +11:00
Doug Kearns 2bd177b471 minor refactoring of "gu" action 2008-12-10 13:52:51 +11:00
Doug Kearns 9233a428bf retab files 2008-12-10 01:46:06 +11:00
Doug Kearns 81db0cdbc0 use "Color Scheme" for the :colorscheme completion title 2008-12-10 01:22:08 +11:00
Doug Kearns 2a31722e29 rename completion.alternateStylesheet to alternateStyleSheet 2008-12-10 01:20:54 +11:00
Doug Kearns e93a17e13f fix completion.alternateStylesheet 2008-12-10 01:12:21 +11:00
Doug Kearns 6ec66f253f use literalArg in :pagestyle action 2008-12-10 01:12:18 +11:00
Doug Kearns d20578b2a0 prefer let over var in Buffer and Marks 2008-12-10 01:12:16 +11:00
Doug Kearns b098d72a08 fix :emenu 2008-12-08 19:37:07 +11:00
Doug Kearns c4ba7444c2 prefer let over var in Tabs 2008-12-08 19:36:50 +11:00
Doug Kearns b921abb6a3 use argCount: "?" for :tabmove 2008-12-08 14:14:03 +11:00
Doug Kearns 2756201060 always return a value from tabs.getContentIndex 2008-12-08 13:25:07 +11:00
Doug Kearns 0b93e56232 quick fix for :style highlighting - the "=" is not required for -name 2008-12-07 00:57:51 +11:00
Doug Kearns aa5a78ea23 fix :set help formatting 2008-12-07 00:04:00 +11:00
Doug Kearns 27d2ad299e fix a few help formatting quirks 2008-12-06 22:12:38 +11:00
Doug Kearns 8a841f6d27 minor rewording of |warning| help 2008-12-06 12:56:54 +11:00
Doug Kearns 6b10642db3 add help for new scrollbar guioptions 2008-12-06 12:51:35 +11:00
Doug Kearns cca40c3067 fix more prompt messages 2008-12-06 12:35:25 +11:00
Doug Kearns d81fdddb7b remove TODO: :runtime is broken 2008-12-05 23:49:02 +11:00
Doug Kearns 64b4d5f9da fix :colorscheme completion 2008-12-05 23:35:12 +11:00
Doug Kearns 4e621740af fix :doautoall help 2008-12-05 14:55:35 +11:00
Doug Kearns f4a0e51cec -TODO: wildmode= doesn't work 2008-12-05 03:49:35 +11:00
Doug Kearns cd66f4dab3 use argCount: "?" with :zoom 2008-12-05 03:07:41 +11:00
Doug Kearns 6ae1fa663e use args.literalArg rather than args.string in :emenu action 2008-12-05 02:10:17 +11:00
Doug Kearns 364d572b09 improve help for :back/:forward 2008-12-05 01:50:39 +11:00
Doug Kearns cc6bdfc2fc Merge branch 'master' of djk@vimperator.org:/git/vimperator/liberator 2008-12-04 14:47:21 +11:00
Doug Kearns 9339e6ae5a fix arg description in :delmacros help 2008-12-04 14:45:02 +11:00
Doug Kearns 6fa6505b1a Merge branch 'master' of djk@vimperator.org:/git/vimperator/liberator 2008-12-04 10:58:55 +11:00
Doug Kearns e9bd2ae2b3 remove unused webcontent dir 2008-12-04 10:55:12 +11:00
Doug Kearns 3a8817a560 allow ${VAR} environment variable expansion on Windows too 2008-12-02 14:48:48 +00:00
Doug Kearns c3deb192b8 use the proper flag arg for loadURIWithFlags in liberator.open 2008-12-02 13:33:51 +00:00
Doug Kearns ce8c5e5d14 fix 'wildcase' help formatting 2008-12-02 11:52:28 +00:00
Doug Kearns 3671422a3b TODO: :<Tab> leaves the cursor at the head of the line; wildmode= doesn't work 2008-12-02 07:44:37 +00:00
Doug Kearns 855caac185 TODO: more prompt now reads "-- More --" at the end of multipage output when
there is no more content
2008-12-01 12:09:30 +00:00
Doug Kearns 837de07687 TODO: :regressions is broken, also now blanks the MOW when run 2008-12-01 12:00:37 +00:00
Doug Kearns 7219a2ad43 TODO: :runtime is broken, possibly Windows only 2008-12-01 11:51:49 +00:00
Doug Kearns ead1babb4d add "?" as the argCount to commands with an optional single arg 2008-12-01 11:45:25 +00:00
Doug Kearns a4361e49f8 specify an argCount of "?" for :chdir 2008-12-01 11:26:14 +00:00
Doug Kearns 25d207eb3c clarify :help documentation - the arg is optional 2008-12-01 11:24:22 +00:00
Doug Kearns caa59fec00 fix :chdir - it doesn't require an arg 2008-12-01 04:36:07 +00:00
Doug Kearns 0698afef24 add 'followhints' to index.txt 2008-11-28 14:30:00 +00:00
Doug Kearns c56dfe137d fix broken 'wildignore' validator 2008-11-28 13:03:28 +00:00
Doug Kearns 5a3a35ea26 whitespace/formatting fixes 2008-11-28 13:01:20 +00:00
Doug Kearns f70df20aa6 add 'followhints' and 'wildcase' RC file highlighting 2008-11-28 12:07:22 +00:00
Doug Kearns f1e3567354 simplify Command#hasName 2008-11-28 12:04:06 +00:00
Doug Kearns a86af802c5 remove '*link[fb]gcolor' from help 2008-11-28 07:14:27 +00:00
Doug Kearns 49d331f811 extract editor.editFileExternally from buffer.viewSource and
editor.editWithExternalEditor
2008-11-28 04:11:42 +00:00
Doug Kearns ff69145da2 fix external editor commands (Eric Van Dewoestine) 2008-11-28 02:48:35 +00:00
Doug Kearns 2e6e7cb915 declare var in javascript#objectKeys 2008-11-27 14:05:15 +00:00
Doug Kearns bfc1031534 declare res variable in template#highlightRegexp 2008-11-27 11:49:05 +00:00
Doug Kearns 81e4be0aee fix typo in removeHints 2008-11-27 07:03:32 +00:00
Doug Kearns c18faf9d58 prefer let over var in io.js 2008-11-26 15:41:00 +00:00
Doug Kearns 3bc181d9cc fix broken io#run on Windows 2008-11-26 15:35:12 +00:00
Doug Kearns 1765f1ab5e fix options#op 'number' and 'string' option setters 2008-11-26 11:00:19 +00:00
Doug Kearns 4462bb3768 fix 'defsearch' validator 2008-11-25 15:19:07 +00:00
Doug Kearns ab057c17a6 add comment about recent literalArg handling change in commands#parseArgs 2008-11-25 14:23:16 +00:00
Doug Kearns c6fd8939f1 fix :doautoall 2008-11-25 14:09:08 +00:00
Doug Kearns b543359408 :retab regressions.js - nasty. 2008-11-25 05:14:45 +00:00
Doug Kearns ccdf6f1011 fix redeclaration of schemes in completion.colorSchemes - prevents Vimp from
loading in FF 3.0
2008-11-24 15:04:37 +00:00
Doug Kearns c2c00a86e3 fix broken :unmap 2008-11-24 12:35:08 +00:00
Doug Kearns b2a87273f8 TODO: map <silent> is broken 2008-11-24 03:54:10 +00:00
Doug Kearns 4b66007575 fix parseArgs - literalArg typo 2008-11-24 03:53:16 +00:00
Doug Kearns 45963ccc12 refactor completion.command 2008-11-14 15:10:36 +00:00
Doug Kearns 46264ada8a remove some duplicate help tags in map.txt 2008-11-14 14:58:06 +00:00
Doug Kearns 0b4232d401 add some more completion args for :command -complete 2008-11-14 14:50:39 +00:00
Doug Kearns 074df859c5 whitespace fixes 2008-11-13 15:45:30 +00:00
Doug Kearns 551417f410 fix typo in :command-complete help 2008-11-13 15:43:17 +00:00
Doug Kearns 47fbbacf41 initial crack at :command -complete - YALNS 2008-11-13 15:41:08 +00:00
Doug Kearns 8b37c91b7b add find across frames release blocker to TODO 2008-11-13 15:16:51 +00:00
Doug Kearns 84703cbb71 prefer let over var in util.js 2008-11-12 12:50:11 +00:00
Doug Kearns 080cfd3304 refactor commands.{add*,get*} 2008-11-12 12:43:10 +00:00
Doug Kearns 5ed314964e fix :command listing and remove broken option filtering as it doesn't seem
generally useful
2008-11-11 14:50:31 +00:00
Doug Kearns d0a42ac0f9 temporarily 'fix' FF 3.0 style sheet loading bug - someone in a better time
zone track it down please
2008-11-10 14:39:09 +00:00
Doug Kearns c6ad5faf9c refactor :delcommand action 2008-11-10 13:24:51 +00:00
Doug Kearns 1de3210214 fix -bang user commands regression 2008-11-10 13:19:16 +00:00
Doug Kearns b3418425bd remove 'visualbellstyle' from index.txt 2008-11-10 03:26:57 +00:00
Doug Kearns d71f37b4ff add :optionusage, :messages and :delstyle to index.txt 2008-11-10 03:22:27 +00:00
Doug Kearns 588c545f64 document :echomsg 2008-11-10 02:53:46 +00:00
Doug Kearns 05005ce482 fix 'eventignore' completion 2008-11-09 14:42:01 +00:00
Doug Kearns d7cfc4b0f5 fix XPI structure - components don't belong in the chrome jar 2008-11-09 13:04:44 +00:00
Doug Kearns d51c6cd035 add missing :highlight and :colorscheme features to TODO 2008-11-07 13:22:53 +00:00
Doug Kearns 185be51cc3 rename autocommand parameters fullscreen and colors to state and name 2008-11-06 14:45:58 +00:00
Doug Kearns 8c9f90c985 change the ColorScheme parameter name to "colors" 2008-11-06 14:20:04 +00:00
Doug Kearns e5db52a8ac add a color scheme parameter to 2008-11-06 14:19:04 +00:00
Doug Kearns c91f3cee03 don't filter out "" elements from stringlist options as they can be significant
E.g. 'cdpath'
2008-11-06 14:08:21 +00:00
Doug Kearns 4c86955c57 partial fix for 'cdpath' (and 'runtimepath' on Windows) - stringlist option
value parsing is not preserving "" items
2008-11-06 11:00:48 +00:00
Doug Kearns a39226ff23 quick fix for #9 ("gi" Goes To Address Bar, not to Webpage) 2008-11-05 01:58:13 +00:00
Doug Kearns 654bd0c2ea fix :set completion when there's no filter 2008-11-04 17:30:52 +00:00
Doug Kearns f371419666 fix "." mapping for repeating the last normal mode command 2008-11-04 16:00:05 +00:00
Doug Kearns 2949902f86 TODO: use storage module for autocommands 2008-11-04 15:00:16 +00:00
Doug Kearns a859ce991c fix jumping to option tags 2008-11-04 07:02:28 +00:00
Doug Kearns 31ba397ff5 push literalArg onto the end of args.arguments in parseArgs - still a bit of a
mess
2008-11-03 06:00:44 +00:00
Doug Kearns c25b5e2b0b use literalArg with :buffers 2008-11-02 14:39:30 +00:00
Doug Kearns 441008c624 provide defaults for some optional config properties 2008-11-02 13:59:58 +00:00
Doug Kearns 6dfc33035b whitespace and semicolon fixes 2008-11-02 11:54:56 +00:00
Doug Kearns d52466188e mention <fullscreen> keyword in autocommands help 2008-11-02 11:52:58 +00:00
Doug Kearns 189d578da8 fix NEWS formatting 2008-11-02 05:56:48 +00:00